Charlevoix, MI

9:01 AM EDT on August 23, 2017 (GMT -0400)
Charlevoix Municipal

Weather History for KCVX - January, 2012

Change the Weather History Date:

Monday, January 2, 2012

  Actual Average Record
Temperature  
Mean Temperature 23 °F -  
Max Temperature 28 °F 34 °F 42 °F (2007)
Min Temperature 18 °F 26 °F 0 °F (2014)
Degree Days  
Heating Degree Days 42    
Moisture  
Dew Point 16 °F    
Average Humidity 72    
Maximum Humidity 92    
Minimum Humidity 62    
Precipitation  
Precipitation 0.00 in - - ()
Sea Level Pressure  
Sea Level Pressure 29.94 in    
Wind  
Wind Speed 24 mph (NW)    
Max Wind Speed 31 mph    
Max Gust Speed 41 mph    
Visibility 6 miles    
Events Snow    
Averages and records for this station are not official NWS values.
T = Trace of Precipitation, MM = Missing Value Source: NWS Daily Summary

Daily Weather History Graph

Daily Weather History Graph

Search for Another Location

Airport or City:

Trip Planner

Search our weather history database for the weather conditions in past years. The results will help you decide how hot, cold, wet, or windy it might be!

Date:

Astronomy

Jan. 02, 2012 Rise Set
Actual Time 8:20 AM EST 5:09 PM EST
Civil Twilight 7:46 AM EST 5:43 PM EST
Nautical Twilight 7:09 AM EST 6:20 PM EST
Astronomical Twilight 6:33 AM EST 6:56 PM EST
Moon 12:32 PM EST (1/2) 2:04 AM EST (1/2)
Length of Visible Light 9h 56m
Length of Day
8h 49m
Waxing Gibbous, 63% of the Moon is Illuminated
Jan 2
Waxing Gibbous
Jan 9
Full
Jan 16
Last Quarter
Jan 23
New
Jan 30
First Quarter

Hourly Weather History & Observations

Time (EST) Temp. Windchill Dew Point Humidity Pressure Visibility Wind Dir Wind Speed Gust Speed Precip Events Conditions
12:14 AM 28.0 °F 14.9 °F 26.1 °F 92% 29.73 in 1.0 mi WNW 19.6 mph 27.6 mph N/A Snow Light Snow
12:34 AM 27.5 °F 12.3 °F 23.4 °F 84% 29.73 in 1.5 mi WNW 26.5 mph 36.8 mph N/A Snow Light Snow
1:15 AM 28.8 °F 14.3 °F 22.1 °F 76% 29.74 in 7.0 mi WNW 25.3 mph 39.1 mph N/A   Overcast
1:34 AM 28.2 °F 13.9 °F 22.5 °F 79% 29.74 in 7.0 mi West 24.2 mph 34.5 mph N/A Snow Light Snow
1:54 AM 27.9 °F 13.4 °F 22.8 °F 81% 29.74 in 4.0 mi WNW 24.2 mph 35.7 mph N/A Snow Light Snow
2:15 AM 27.3 °F 11.8 °F 23.9 °F 87% 29.75 in 1.8 mi West 27.6 mph 40.3 mph N/A Snow Light Snow
2:34 AM 27.0 °F 11.6 °F 23.4 °F 86% 29.76 in 1.5 mi WNW 26.5 mph 38.0 mph N/A Snow Light Snow
2:54 AM 27.3 °F 12.4 °F 21.9 °F 80% 29.77 in 3.0 mi WNW 25.3 mph 36.8 mph N/A Snow Light Snow
3:01 AM 27.3 °F 11.0 °F 22.3 °F 81% 29.77 in 2.0 mi WNW 31.1 mph 41.4 mph N/A Snow Light Snow
3:25 AM 26.6 °F 10.8 °F 21.2 °F 80% 29.77 in 1.8 mi WNW 27.6 mph 38.0 mph N/A   Overcast
3:45 AM 26.6 °F 11.1 °F 21.2 °F 80% 29.78 in 1.5 mi WNW 26.5 mph 38.0 mph N/A   Overcast
4:05 AM 26.6 °F 10.8 °F 21.2 °F 80% 29.78 in 1.8 mi WNW 27.6 mph 35.7 mph N/A   Overcast
4:25 AM 26.6 °F 11.4 °F 19.4 °F 74% 29.79 in 4.0 mi NW 25.3 mph 35.7 mph N/A   Overcast
4:45 AM 26.6 °F 11.7 °F 19.4 °F 74% 29.79 in 4.0 mi NW 24.2 mph 38.0 mph N/A   Overcast
5:34 AM 26.6 °F 11.4 °F 18.3 °F 71% 29.80 in 10.0 mi NW 25.3 mph 34.5 mph N/A   Overcast
5:55 AM 27.1 °F 12.4 °F 18.9 °F 71% 29.80 in 10.0 mi WNW 24.2 mph 34.5 mph N/A   Overcast
6:34 AM 26.8 °F 13.7 °F 19.0 °F 73% 29.82 in 10.0 mi NW 18.4 mph 34.5 mph N/A   Overcast
6:55 AM 26.6 °F 12.0 °F 18.1 °F 70% 29.82 in 10.0 mi NW 23.0 mph 35.7 mph N/A   Overcast
7:14 AM 26.6 °F 11.1 °F 18.1 °F 70% 29.83 in 10.0 mi NW 26.5 mph 36.8 mph N/A   Overcast
7:34 AM 26.2 °F 10.1 °F 18.3 °F 72% 29.83 in 10.0 mi NW 28.8 mph 38.0 mph N/A   Overcast
7:55 AM 26.1 °F 11.0 °F 19.0 °F 75% 29.84 in 10.0 mi NW 24.2 mph 36.8 mph N/A   Overcast
8:14 AM 25.9 °F 10.7 °F 18.9 °F 75% 29.84 in 5.0 mi NW 24.2 mph 33.4 mph N/A   Haze
8:34 AM 25.7 °F 11.5 °F 18.1 °F 73% 29.85 in 10.0 mi NW 20.7 mph 35.7 mph N/A   Overcast
8:54 AM 25.7 °F 9.6 °F 19.2 °F 76% 29.86 in 3.0 mi NW 27.6 mph 36.8 mph N/A Snow Light Snow
9:14 AM 25.7 °F 10.8 °F 18.1 °F 73% 29.87 in 10.0 mi NW 23.0 mph 32.2 mph N/A   Overcast
9:34 AM 25.7 °F 10.8 °F 17.4 °F 71% 29.88 in 10.0 mi NW 23.0 mph 33.4 mph N/A   Overcast
9:54 AM 25.5 °F 10.9 °F 16.7 °F 69% 29.89 in 10.0 mi NW 21.9 mph 31.1 mph N/A   Overcast
10:14 AM 25.7 °F 11.9 °F 19.0 °F 76% 29.90 in 7.0 mi NW 19.6 mph 29.9 mph N/A Snow Light Snow
10:34 AM 25.3 °F 11.0 °F 21.0 °F 84% 29.91 in 1.0 mi NW 20.7 mph 31.1 mph N/A Snow Light Snow
11:14 AM 24.8 °F 9.6 °F 19.9 °F 82% 29.91 in 0.8 mi WNW 23.0 mph 33.4 mph N/A Snow Light Snow
11:34 AM 25.3 °F 10.0 °F 19.2 °F 78% 29.92 in 0.8 mi NW 24.2 mph 33.4 mph N/A Snow Light Snow
11:54 AM 24.8 °F 10.0 °F 17.4 °F 74% 29.93 in 1.0 mi NW 21.9 mph 38.0 mph N/A Snow Light Snow
12:15 PM 24.8 °F 8.1 °F 16.0 °F 69% 29.93 in 1.2 mi NW 28.8 mph 38.0 mph N/A Snow Light Snow
12:34 PM 24.6 °F 10.1 °F 15.8 °F 69% 29.94 in 1.2 mi NNW 20.7 mph 38.0 mph N/A Snow Light Snow
12:54 PM 24.6 °F 9.1 °F 14.4 °F 65% 29.96 in 2.5 mi NW 24.2 mph 38.0 mph N/A   Haze
1:14 PM 23.9 °F 9.5 °F 13.5 °F 64% 29.96 in 3.0 mi NNW 19.6 mph 38.0 mph N/A   Haze
1:34 PM 23.5 °F 8.0 °F 15.4 °F 71% 29.97 in 7.0 mi NW 23.0 mph 32.2 mph N/A   Overcast
1:55 PM 23.7 °F 8.5 °F 13.3 °F 64% 29.98 in 10.0 mi NNW 21.9 mph 35.7 mph N/A   Mostly Cloudy
2:14 PM 23.9 °F 8.1 °F 12.7 °F 62% 29.99 in 10.0 mi NNW 24.2 mph 35.7 mph N/A   Mostly Cloudy
2:34 PM 23.0 °F 6.0 °F 11.7 °F 62% 30.00 in 10.0 mi NNW 27.6 mph 38.0 mph N/A   Scattered Clouds
3:14 PM 22.1 °F 5.7 °F 14.9 °F 74% 30.02 in 3.0 mi NW 24.2 mph 41.4 mph N/A Snow Light Snow
3:34 PM 22.1 °F 6.4 °F 16.2 °F 78% 30.04 in 3.0 mi NNW 21.9 mph 36.8 mph N/A Snow Light Snow
3:54 PM 22.1 °F 6.4 °F 13.6 °F 70% 30.05 in 10.0 mi NNW 21.9 mph 34.5 mph N/A   Overcast
4:14 PM 21.0 °F 4.3 °F 16.9 °F 84% 30.07 in 0.8 mi NW 24.2 mph 35.7 mph N/A Snow Light Snow
4:35 PM 21.9 °F 5.1 °F 11.7 °F 65% 30.09 in 10.0 mi NW 25.3 mph 36.8 mph N/A   Mostly Cloudy
4:54 PM 21.2 °F 6.0 °F 11.3 °F 66% 30.10 in 10.0 mi NNW 19.6 mph 34.5 mph N/A   Overcast
5:14 PM 21.4 °F 3.8 °F 10.0 °F 62% 30.10 in 10.0 mi NNW 27.6 mph 38.0 mph N/A   Overcast
5:34 PM 21.2 °F 3.0 °F 10.2 °F 63% 30.11 in 10.0 mi NW 29.9 mph 41.4 mph N/A   Overcast
5:54 PM 21.2 °F 3.5 °F 10.2 °F 63% 30.12 in 10.0 mi NW 27.6 mph 35.7 mph N/A   Overcast
6:14 PM 21.0 °F 3.6 °F 10.0 °F 63% 30.14 in 10.0 mi NW 26.5 mph 39.1 mph N/A   Mostly Cloudy
6:34 PM 20.7 °F 3.8 °F 11.8 °F 69% 30.15 in 10.0 mi NNW 24.2 mph 36.8 mph N/A   Overcast
6:54 PM 19.8 °F 1.9 °F 10.8 °F 68% 30.16 in 1.2 mi NW 26.5 mph 36.8 mph N/A Snow Light Snow
7:14 PM 19.8 °F 2.9 °F 10.0 °F 66% 30.17 in 10.0 mi NW 23.0 mph 35.7 mph N/A   Overcast
7:34 PM 19.8 °F 2.2 °F 10.6 °F 68% 30.18 in 10.0 mi NW 25.3 mph 33.4 mph N/A   Overcast
7:54 PM 19.4 °F 3.2 °F 8.6 °F 63% 30.18 in 10.0 mi NW 20.7 mph 33.4 mph N/A   Overcast
8:15 PM 19.2 °F 2.6 °F 9.3 °F 65% 30.18 in 10.0 mi NW 21.9 mph 34.5 mph N/A   Overcast
8:34 PM 18.9 °F 1.0 °F 8.6 °F 64% 30.19 in 7.0 mi NW 25.3 mph 36.8 mph N/A   Overcast
8:54 PM 19.0 °F 3.2 °F 8.2 °F 63% 30.19 in 7.0 mi NNW 19.6 mph 31.1 mph N/A Snow Light Snow
9:14 PM 19.0 °F 2.0 °F 9.1 °F 65% 30.19 in 7.0 mi NW 23.0 mph 32.2 mph N/A   Overcast
9:34 PM 18.9 °F 2.5 °F 8.4 °F 64% 30.19 in 7.0 mi NNW 20.7 mph 35.7 mph N/A   Overcast
9:55 PM 18.7 °F 2.7 °F 9.7 °F 68% 30.20 in 5.0 mi NNW 19.6 mph 28.8 mph N/A Snow Light Snow
10:14 PM 18.5 °F 1.3 °F 8.1 °F 64% 30.20 in 10.0 mi NW 23.0 mph 29.9 mph N/A   Overcast
10:34 PM 18.5 °F 2.9 °F 8.1 °F 64% 30.20 in 7.0 mi NW 18.4 mph 33.4 mph N/A   Overcast
10:55 PM 18.5 °F 2.4 °F 8.1 °F 64% 30.20 in 7.0 mi NW 19.6 mph 32.2 mph N/A Snow Light Snow
11:14 PM 18.3 °F 1.8 °F 7.9 °F 64% 30.20 in 10.0 mi NW 20.7 mph 29.9 mph N/A   Overcast
11:34 PM 18.1 °F 2.0 °F 7.0 °F 62% 30.20 in 7.0 mi NW 19.6 mph 31.1 mph N/A Snow Light Snow
11:54 PM 17.8 °F -0.1 °F 6.4 °F 61% 30.20 in 10.0 mi NW 24.2 mph 32.2 mph N/A   Scattered Clouds